Flag for Germany Weather past 2 weeks in Bad Neuenahr-Ahrweiler, Rhineland-Palatinate, Germany

Now
53 °F

Fog.


Feels Like: 52 °F
Forecast: 47 / 64 °F
Wind: 3 mph from Southwest

Location: Bonn-Hangelar

Current Time: Sep 3, 2015 at 5:10:41 AM

Latest Report: Sep 3, 2015 at 4:00 AM


Visibility: 3 mi

Pressure: 29.99 "Hg

Humidity: 97%

Dew point: 52 °F

Location of Bad Neuenahr-AhrweilerLocation

Historic Weather in Bad Neuenahr-Ahrweiler — Graph

°F

Bad Neuenahr-Ahrweiler temperature yesterday

Maximum temperature yesterday: 63 °F (at 3:00 PM)
Minimum temperature yesterday: 51 °F (at 4:00 AM)
Average temperature yesterday: 56 °F

Past Weeks' High & Low Weather Summary

 TemperatureHumidityPressure
High87 °F (Aug 30, 4:00 PM)100% (Aug 24, 1:00 AM)30.24 "Hg (Aug 24, 1:00 AM)
Low49 °F (Aug 19, 6:00 AM)32% (Aug 31, 4:00 PM)29.50 "Hg (Aug 24, 3:00 PM)
Average65 °F76%29.97 "Hg
* Reported Aug 19 4:00 AM — Sep 3 4:00 AM, Bad Neuenahr-Ahrweiler, Weather by CustomWeather, © 2015

Note: Actual official high and low records may vary slightly from our data, if they occured in-between our weather recording intervals... More about our weather records

Advertising

Bad Neuenahr-Ahrweiler weather history for previous 24 hours

 ConditionsComfort  
Time TempWeatherWind HumidityBarometerVisibility
4:00 AM
Thu, Sep 3
53 °FFog.3 mph97%29.99 "Hg3 mi
3:00 AM53 °FFog.2 mph99%30.00 "Hg2 mi
2:00 AM53 °FOvercast.2 mph99%30.00 "Hg2 mi
1:00 AM54 °FOvercast.1 mph97%30.00 "Hg2 mi
11:00 PM
Wed, Sep 2
56 °FDrizzle. Overcast.2 mph95%30.02 "Hg6 mi
10:00 PM56 °FOvercast.2 mph92%30.02 "Hg11 mi
9:00 PM56 °FOvercast.2 mph87%30.02 "Hg12 mi
8:00 PM58 °FOvercast.1 mph82%30.01 "Hg18 mi
7:00 PM57 °FOvercast.3 mph84%30.01 "Hg16 mi
6:00 PM61 °FOvercast.5 mph74%30.00 "Hg25 mi
5:00 PM59 °FOvercast.2 mph80%30.01 "Hg19 mi
4:00 PM59 °FDrizzle. Overcast.5 mph81%30.01 "Hg11 mi
3:00 PM63 °FOvercast.5 mph70%30.01 "Hg22 mi
2:00 PM61 °FScattered clouds.5 mph76%30.01 "Hg18 mi
1:00 PM61 °FOvercast.5 mph77%30.03 "Hg17 mi
12:00 PM61 °FPartly sunny.5 mph85%30.03 "Hg9 mi
11:00 AM59 °FScattered clouds.6 mph90%30.04 "Hg14 mi
10:00 AM57 °FPartly sunny.5 mph88%30.04 "Hg15 mi
9:00 AM54 °FPassing clouds.5 mph94%30.05 "Hg10 mi
8:00 AM52 °FPassing clouds.5 mph97%30.06 "Hg9 mi
7:00 AM52 °FOvercast.3 mph98%30.05 "Hg5 mi
6:00 AM52 °FPassing clouds.3 mph99%30.06 "Hg5 mi
5:00 AM52 °FPassing clouds.3 mph98%30.07 "Hg6 mi
Weather by CustomWeather, © 2015

See weather overviewHow to use our weather pages